TimeHST,TemperatureF,Dew PointF,Humidity,Sea Level PressureIn,VisibilityMPH,Wind Direction,Wind SpeedMPH,Gust SpeedMPH,PrecipitationIn,Events,Conditions,WindDirDegrees,DateUTC
12:53 AM,71.1,64.0,78,30.02,10.0,Calm,Calm,-,N/A,,Clear,0,2012-10-18 10:53:00
1:53 AM,69.1,64.0,84,30.01,10.0,Calm,Calm,-,N/A,,Clear,0,2012-10-18 11:53:00
2:53 AM,69.1,64.0,84,30.01,10.0,East,3.5,-,N/A,,Mostly Cloudy,80,2012-10-18 12:53:00
3:53 AM,71.1,64.9,81,30.01,10.0,Calm,Calm,-,N/A,,Overcast,0,2012-10-18 13:53:00
4:53 AM,71.1,64.9,81,30.00,10.0,Calm,Calm,-,N/A,,Overcast,0,2012-10-18 14:53:00
5:53 AM,70.0,64.9,84,30.01,10.0,Calm,Calm,-,N/A,,Overcast,0,2012-10-18 15:53:00
6:53 AM,71.1,64.9,81,30.02,10.0,Calm,Calm,-,N/A,,Overcast,0,2012-10-18 16:53:00
7:53 AM,73.9,66.0,76,30.04,10.0,Calm,Calm,-,N/A,,Mostly Cloudy,0,2012-10-18 17:53:00
8:53 AM,79.0,68.0,69,30.04,10.0,East,5.8,-,N/A,,Scattered Clouds,90,2012-10-18 18:53:00
9:53 AM,79.0,66.0,64,30.04,10.0,Variable,4.6,-,N/A,,Overcast,0,2012-10-18 19:53:00
10:53 AM,80.1,66.9,64,30.03,10.0,ENE,4.6,-,N/A,,Overcast,70,2012-10-18 20:53:00
11:53 AM,82.0,68.0,62,30.00,10.0,Variable,6.9,-,N/A,,Mostly Cloudy,0,2012-10-18 21:53:00
12:53 PM,84.0,68.0,58,29.98,10.0,ESE,8.1,18.4,N/A,,Mostly Cloudy,120,2012-10-18 22:53:00
1:53 PM,82.0,69.1,65,29.96,10.0,ESE,15.0,23.0,N/A,,Partly Cloudy,120,2012-10-18 23:53:00
2:53 PM,84.0,64.0,51,29.94,10.0,East,9.2,19.6,N/A,,Scattered Clouds,90,2012-10-19 00:53:00
3:53 PM,82.0,66.9,60,29.95,10.0,ESE,10.4,19.6,N/A,,Mostly Cloudy,120,2012-10-19 01:53:00
4:53 PM,80.1,68.0,67,29.96,10.0,Variable,4.6,17.3,N/A,,Partly Cloudy,0,2012-10-19 02:53:00
5:53 PM,78.1,64.0,62,29.97,10.0,ENE,5.8,-,N/A,,Clear,60,2012-10-19 03:53:00
6:53 PM,75.9,64.9,69,30.01,10.0,Variable,4.6,-,N/A,,Scattered Clouds,0,2012-10-19 04:53:00
7:53 PM,75.9,66.0,71,30.03,10.0,Calm,Calm,-,N/A,,Mostly Cloudy,0,2012-10-19 05:53:00
8:53 PM,73.9,66.0,76,30.05,10.0,ENE,4.6,-,N/A,,Clear,70,2012-10-19 06:53:00
9:53 PM,73.0,66.0,79,30.06,10.0,Calm,Calm,-,N/A,,Mostly Cloudy,0,2012-10-19 07:53:00
10:53 PM,73.0,64.9,76,30.05,10.0,Calm,Calm,-,N/A,,Scattered Clouds,0,2012-10-19 08:53:00
11:53 PM,71.1,64.9,81,30.04,10.0,Calm,Calm,-,N/A,,Clear,0,2012-10-19 09:53:00